When you browse on this site, cookies collect data to enhance your experience and personalize the content and advertising you see.
Visit our Privacy Policy to learn more. By continuing to use the site, you agree to this use of cookies and data.

Previsão horária em Zagornyy

Hoje, 4 Julho, Sábado

Tempo Temperatura Precipitação Vento Pressão Humidade
00:00 +20°C° 0.1 mm 2 m/s 753 mmHg 93%
01:00 +20°C° 0 mm 2 m/s 753 mmHg 94%
02:00 +20°C° 0 mm 2 m/s 752 mmHg 94%
03:00 +19°C° 0 mm 2 m/s 753 mmHg 93%
04:00 +20°C° 0 mm 2 m/s 752 mmHg 92%
05:00 +20°C° 0 mm 2 m/s 752 mmHg 91%
06:00 +21°C° 0 mm 2 m/s 752 mmHg 90%
07:00 +23°C° 0 mm 2 m/s 752 mmHg 85%
08:00 +25°C° 0 mm 2 m/s 752 mmHg 79%
09:00 +27°C° 0 mm 2 m/s 752 mmHg 72%
10:00 +28°C° 0.1 mm 2 m/s 752 mmHg 68%
11:00 +29°C° 0.1 mm 3 m/s 752 mmHg 65%
12:00 +30°C° 0.1 mm 3 m/s 751 mmHg 62%
13:00 +30°C° 0.2 mm 3 m/s 751 mmHg 62%
14:00 +30°C° 0.2 mm 4 m/s 751 mmHg 62%
15:00 +32°C° 0.2 mm 4 m/s 751 mmHg 62%
16:00 +30°C° 0.1 mm 4 m/s 751 mmHg 66%
17:00 +30°C° 0.1 mm 3 m/s 751 mmHg 69%
18:00 +29°C° 0.1 mm 2 m/s 750 mmHg 73%
19:00 +27°C° 0.4 mm 2 m/s 750 mmHg 78%
20:00 +25°C° 0.4 mm 2 m/s 751 mmHg 83%
21:00 +22°C° 0.4 mm 3 m/s 751 mmHg 88%
22:00 +21°C° 0 mm 2 m/s 751 mmHg 90%
23:00 +21°C° 0 mm 2 m/s 750 mmHg 92%

Amanhã, 5 Julho, Domingo

Tempo Temperatura Precipitação Vento Pressão Humidade
00:00 +20°C° 0 mm 2 m/s 750 mmHg 94%
01:00 +20°C° 0 mm 2 m/s 750 mmHg 94%
02:00 +20°C° 0 mm 2 m/s 750 mmHg 95%
03:00 +19°C° 0 mm 2 m/s 751 mmHg 95%
04:00 +20°C° 0 mm 2 m/s 750 mmHg 94%
05:00 +22°C° 0 mm 1 m/s 750 mmHg 93%
06:00 +22°C° 0 mm 1 m/s 750 mmHg 92%
07:00 +23°C° 0 mm 1 m/s 750 mmHg 87%
08:00 +25°C° 0 mm 1 m/s 750 mmHg 83%
09:00 +26°C° 0 mm 2 m/s 750 mmHg 78%
10:00 +27°C° 0.1 mm 2 m/s 750 mmHg 75%
11:00 +28°C° 0.1 mm 3 m/s 750 mmHg 72%
12:00 +28°C° 0.1 mm 3 m/s 750 mmHg 69%
13:00 +27°C° 0.8 mm 3 m/s 750 mmHg 73%
14:00 +26°C° 0.8 mm 4 m/s 750 mmHg 77%
15:00 +25°C° 0.8 mm 4 m/s 750 mmHg 81%
16:00 +25°C° 0.1 mm 3 m/s 750 mmHg 83%
17:00 +24°C° 0.1 mm 2 m/s 750 mmHg 85%
18:00 +24°C° 0.1 mm 1 m/s 749 mmHg 87%
19:00 +23°C° 0 mm 1 m/s 749 mmHg 88%
20:00 +23°C° 0 mm 2 m/s 749 mmHg 90%
21:00 +21°C° 0 mm 2 m/s 749 mmHg 92%
22:00 +21°C° 0 mm 2 m/s 749 mmHg 92%
23:00 +21°C° 0 mm 2 m/s 750 mmHg 92%

Depois de amanhã, 6 Julho, Segunda-feira

Tempo Temperatura Precipitação Vento Pressão Humidade
00:00 +20°C° 0 mm 2 m/s 750 mmHg 93%
01:00 +21°C° 0 mm 1 m/s 750 mmHg 93%
02:00 +21°C° 0 mm 1 m/s 750 mmHg 93%
03:00 +21°C° 0 mm 1 m/s 750 mmHg 94%
04:00 +21°C° 0 mm 1 m/s 750 mmHg 93%
05:00 +22°C° 0 mm 1 m/s 750 mmHg 92%
06:00 +23°C° 0 mm 1 m/s 750 mmHg 90%
07:00 +24°C° 0 mm 1 m/s 750 mmHg 83%
08:00 +26°C° 0 mm 1 m/s 750 mmHg 76%
09:00 +27°C° 0 mm 1 m/s 750 mmHg 70%
10:00 +28°C° 0 mm 2 m/s 750 mmHg 66%
11:00 +29°C° 0 mm 2 m/s 750 mmHg 62%
12:00 +30°C° 0 mm 3 m/s 750 mmHg 59%
13:00 +30°C° 0 mm 3 m/s 750 mmHg 58%
14:00 +31°C° 0 mm 3 m/s 750 mmHg 57%
15:00 +31°C° 0 mm 3 m/s 750 mmHg 56%
16:00 +31°C° 0 mm 2 m/s 750 mmHg 60%
17:00 +31°C° 0 mm 2 m/s 750 mmHg 63%
18:00 +30°C° 0 mm 1 m/s 750 mmHg 66%
19:00 +28°C° 0 mm 1 m/s 750 mmHg 70%
20:00 +26°C° 0 mm 1 m/s 750 mmHg 73%
21:00 +24°C° 0 mm 1 m/s 750 mmHg 77%
22:00 +24°C° 0 mm 1 m/s 750 mmHg 78%
23:00 +23°C° 0 mm 1 m/s 750 mmHg 79%

7 Julho, Terça-feira

Tempo Temperatura Precipitação Vento Pressão Humidade
00:00 +23°C° 0 mm 2 m/s 750 mmHg 79%
01:00 +21°C° 0 mm 2 m/s 750 mmHg 80%
02:00 +21°C° 0 mm 2 m/s 750 mmHg 80%
03:00 +20°C° 0 mm 2 m/s 750 mmHg 81%
04:00 +21°C° 0 mm 2 m/s 750 mmHg 80%
05:00 +21°C° 0 mm 2 m/s 750 mmHg 80%
06:00 +23°C° 0 mm 2 m/s 750 mmHg 79%
07:00 +25°C° 0 mm 2 m/s 750 mmHg 73%
08:00 +26°C° 0 mm 3 m/s 750 mmHg 68%
09:00 +28°C° 0 mm 3 m/s 750 mmHg 62%
10:00 +30°C° 0 mm 3 m/s 750 mmHg 58%
11:00 +31°C° 0 mm 3 m/s 750 mmHg 54%
12:00 +34°C° 0 mm 4 m/s 750 mmHg 50%
13:00 +34°C° 0 mm 4 m/s 749 mmHg 49%
14:00 +34°C° 0 mm 4 m/s 749 mmHg 49%
15:00 +35°C° 0 mm 4 m/s 749 mmHg 49%
16:00 +34°C° 0 mm 4 m/s 749 mmHg 54%
17:00 +33°C° 0 mm 4 m/s 749 mmHg 59%
18:00 +31°C° 0 mm 3 m/s 749 mmHg 64%
19:00 +29°C° 0 mm 3 m/s 749 mmHg 70%
20:00 +28°C° 0 mm 3 m/s 749 mmHg 75%
21:00 +26°C° 0 mm 3 m/s 749 mmHg 80%
22:00 +26°C° 0 mm 3 m/s 749 mmHg 80%
23:00 +25°C° 0 mm 3 m/s 749 mmHg 80%

8 Julho, Quarta-feira

Tempo Temperatura Precipitação Vento Pressão Humidade
00:00 +24°C° 0 mm 3 m/s 749 mmHg 79%
01:00 +24°C° 0 mm 3 m/s 749 mmHg 77%
02:00 +22°C° 0 mm 3 m/s 749 mmHg 76%
03:00 +22°C° 0 mm 3 m/s 749 mmHg 74%
04:00 +22°C° 0 mm 3 m/s 749 mmHg 75%
05:00 +22°C° 0 mm 3 m/s 749 mmHg 75%
06:00 +24°C° 0 mm 3 m/s 749 mmHg 76%
07:00 +26°C° 0 mm 3 m/s 749 mmHg 70%
08:00 +28°C° 0 mm 4 m/s 749 mmHg 65%
09:00 +30°C° 0 mm 4 m/s 749 mmHg 59%
10:00 +32°C° 0 mm 5 m/s 749 mmHg 56%
11:00 +33°C° 0 mm 5 m/s 749 mmHg 53%
12:00 +34°C° 0 mm 5 m/s 749 mmHg 50%
13:00 +34°C° 0 mm 5 m/s 748 mmHg 51%
14:00 +34°C° 0 mm 5 m/s 748 mmHg 52%
15:00 +34°C° 0 mm 5 m/s 747 mmHg 53%
16:00 +33°C° 0 mm 5 m/s 747 mmHg 58%
17:00 +32°C° 0 mm 4 m/s 747 mmHg 62%
18:00 +30°C° 0 mm 4 m/s 747 mmHg 66%
19:00 +29°C° 0 mm 4 m/s 746 mmHg 70%
20:00 +28°C° 0 mm 4 m/s 746 mmHg 74%
21:00 +27°C° 0 mm 4 m/s 746 mmHg 78%
22:00 +26°C° 0 mm 4 m/s 745 mmHg 76%
23:00 +26°C° 0 mm 4 m/s 745 mmHg 74%

9 Julho, Quinta-feira

Tempo Temperatura Precipitação Vento Pressão Humidade
00:00 +26°C° 0 mm 4 m/s 745 mmHg 72%
01:00 +25°C° 0 mm 5 m/s 745 mmHg 72%
02:00 +25°C° 0 mm 5 m/s 744 mmHg 72%
03:00 +25°C° 0 mm 5 m/s 744 mmHg 71%
04:00 +25°C° 0 mm 5 m/s 744 mmHg 73%
05:00 +23°C° 0 mm 4 m/s 744 mmHg 75%
06:00 +24°C° 0 mm 3 m/s 744 mmHg 77%
07:00 +25°C° 0 mm 3 m/s 744 mmHg 76%
08:00 +25°C° 0 mm 2 m/s 744 mmHg 75%
09:00 +25°C° 0 mm 2 m/s 744 mmHg 75%
10:00 +26°C° 0 mm 1 m/s 744 mmHg 73%
11:00 +27°C° 0 mm 1 m/s 744 mmHg 70%
12:00 +28°C° 0 mm 1 m/s 745 mmHg 68%
13:00 +28°C° 0.1 mm 1 m/s 745 mmHg 66%
14:00 +29°C° 0.1 mm 1 m/s 745 mmHg 64%
15:00 +29°C° 0.1 mm 2 m/s 745 mmHg 62%
16:00 +27°C° 1.7 mm 4 m/s 745 mmHg 73%
17:00 +23°C° 1.7 mm 5 m/s 746 mmHg 83%
18:00 +21°C° 1.7 mm 7 m/s 746 mmHg 93%
19:00 +20°C° 0.9 mm 7 m/s 746 mmHg 94%
20:00 +19°C° 0.9 mm 6 m/s 746 mmHg 95%
21:00 +19°C° 0.9 mm 5 m/s 747 mmHg 95%
22:00 +17°C° 0.1 mm 5 m/s 747 mmHg 96%
23:00 +18°C° 0.1 mm 4 m/s 747 mmHg 96%
Mostrar mais